Погода в Владикавказе

Погода в Владикавказе : погода сейчас, прогноз погоды и архив. Всё, что Вы хотите узнать о погоде в Владикавказе!

Поиск расширенной информации на нашем сайте:

Другие новости

Новости СМИ2

Главная страница сайта

Новости сайта

03.07.2017

Напоминаем, что на нашем специализированном сайте Метеоцентр.Азия вы можете получить высокодетализированные автоматические прогнозы погоды по пунктам России, СНГ и мира в авиационном формате (включающие направление и скорость ветра, видимость, явления погоды, количество и форму облачности, нижнюю и верхнюю границу облачности).

Рекомендуем: Интернет магазин вышивки и вязания пряжа http://www.kudel.ru.

Погода в Владикавказе - сегодня

Время (UTC), дата Ветер
(°,м/с) 
Видим.   Явления Облачность Т
(°С)
Тd
(°С)
f(%) Тe
(°С)
Pmin
(гПа)
dP
(гПа)
Po
(мм)
O2
(г/м3)
Тmin Tmax R s Состояние
почвы
09 16.08.18 300 (СЗ) 20000 м    5/5 600 м 
[Cu hum]
+25.3 +14.3 51 +35  1011.2  -0.6  700  255           
12 16.08.18 300 (СЗ) 10 км    10/8 600 м средняя 
[Cu Sc|Ac und]
+24.6 +15.1 55 +35  1011  -0.4  700  256           
15 16.08.18 тихо ()   10 км    10/8 600 м средняя 
[Sc|Ac und]
+23.2 +15.9 64 +35  1011.3  700  257    +27       
18 16.08.18 тихо ()   10 км    8/8 600 м 
[Sc]
+20.2 +16.3 78 +33  1012.5  0.4  700  259           
21 16.08.18 170 (Ю) 10 км    4/4 600 м 
[Sc]
+18.3 +15.3 83 +31  1012.5  -0.6  700  261           
00 17.08.18 160 (Ю) 10 км    3/3 600 м 
[Sc]
+16.8 +14.4 86 +28  1012.4  -0.5  700  262           
03 17.08.18 тихо ()   20000 м    ясно 
+16.3 +14.1 87 +25  1013.1  0.5  700  263  +15.2        сухая 
06 17.08.18 320 (СЗ) 20000 м    3/3 1000 м 
[Cu hum]
+22.6 +15.8 65 +35  1011.1  -0.1  700  257           
09 17.08.18 280 (З) 20000 м    8/8 600 м 
[Sc]
+24.5 +15.1 56 +35  1010.1  -0.5  700  255           
12 17.08.18 260 (З) 10 км    10/10 600 м 
[Sc]
+24.8 +15.1 55 +36  1009.7  -0.3  699  255           
15 17.08.18 260 (З) 10 км    10/10 300 м кучево-дожд. 
[Cb calv]
+24 +16.3 62 +37  1009.8  -0.1  699  255    +26.3       
18 17.08.18 тихо ()   10 км    10/10 600 м кучево-дожд. 
[Cb calv]
+21.5 +17.3 77 +37  1010.6  0.2  699  257           
21 17.08.18 180 (Ю) 10 км    10/10 600 м 
[Sc]
+20.9 +16.7 77 +35  1010.2  -0.6  699  258           
00 18.08.18 160 (Ю) 10 км    10/10 600 м 
[Sc]
+19.8 +16.5 81 +35  1009.6  -0.8  698  259           
03 18.08.18 тихо ()   10 км    10/10 600 м кучево-дожд. 
[Cb calv]
+19.5 +16.6 83 +33  1010.2  0.5  699  259  +19.1        сухая 
06 18.08.18 360 (С) 10 км    9/5 600 м средняя 
[Sc|Ac und]
+23 +16.7 68 +37  1009.2  699  256           
09 18.08.18 060 (СВ) 10 км  гроза, ливневой дождь  9/8 600 м кучево-дожд., средняя 
[Cb cap|Ac As]
+23.9 +11.1 45 +28  1008.9  -0.2  699  257           
12 18.08.18 250 (З) 10 км  гроза, ливневой дождь  10/10 600 м кучево-дожд. 
[Cb cap]
+19 +14.8 77 +30  1012.8  2.4  700  261           
15 18.08.18 150 (ЮВ) 20000 м  в посл. час ливневой дождь{гроза}  10/10 600 м кучево-дожд. 
[Cb cap]
+16.8 +14.2 85 +27  1013.4  700  263    +26     
18 18.08.18 170 (Ю) 10 км  {гроза, ливн. осадки}  10/10 600 м 
[Sc]
+16 +13.7 86 +25  1013.8  0.1  700  264           
21 18.08.18 170 (Ю) 10 км    10/10 600 м 
[Sc]
+16.4 +12.6 78 +24  1013  -0.7  700  263           
00 19.08.18 160 (Ю) 10 км    8/8 600 м 
[Sc]
+15.6 +11.7 78 +22  1013.2  700  264           
03 19.08.18 тихо ()   20000 м    9/5 1000 м средняя 
[Sc|Ac As]
+15.9 +11.9 77 +21  1014.1  0.9  701  264  +15    0.3    влажная 
06 19.08.18 320 (СЗ) 20000 м    3/1 1000 м верхняя 
[Cu med, cong|Ci fib]
+20.3 +13.4 65 +28  1013.3  0.4  701  260           
09 19.08.18 270 (З) 20000 м    3/3 1000 м 
[Cu med, cong]
+22.4 +12.5 53 +29  1013.2  0.4  701  259           
Время (UTC), дата Ветер
(°,м/с) 
Видим.   Явления Облачность Т
(°С)
Тd
(°С)
f(%) Тe
(°С)
Pmin
(гПа)
dP
(гПа)
Po
(мм)
O2
(г/м3)
Тmin Tmax R s Состояние
почвы

Для получения пояснительной информации подведите курсор к названию столбца.

ПОГОДА в Владикавказе - архив

Всё, что Вы хотите узнать о погоде в Владикавказе - удобно и подробно!

Выберите нужную дату (начиная с 1 января 2015* года) и нажмите кнопку "Найти".
Будут отображены архивные сводки погоды по пункту Владикавказ, начиная с указанной даты.


Отображать данные в формате CSV (для использования в таблицах Excel)


Внимание! Наш архив погоды предназначен исключительно для личного некоммерческого использования в познавательных целях. Если Вам необходимы официальные справки о состоянии погоды (для производственных, юридических, коммерческих и т.п. целей), обращайтесь в органы Росгидромета.

*Примечание: данная дата относится к архиву по метеостанциям СССР (Россия, СНГ, Балтия).
Архив по метеостанциям Зарубежной Европы и Азии (кроме Китая) хранится 10 дней, по другим регионам земного шара (Китай, Африка, Америка, Австралия, Океания) - 1 день.

Владикавказ - район местоположения метеостанции


Название, широта, долгота, высота метеостанции:
Владикавказ 43.1°ш. 44.6°д. 703 м над ур. моря [Российская Федерация]

Дополнительная информация

В oтличие oт бoльшинства пoгoдных сайтoв мы публикуем пoдрoбную метеoинфoрмацию в детальнoм прoфессиoнальнoм фoрмате.

Характеристики температуры и влажнoсти вoздуха измеряются на высoте 2 м в тени вдали oт зданий и деревьев.
Скoрoсть ветра измеряется на высoте 10 м (на урoвне рoста челoвека скoрoсть ветра ниже в 1.5-2 раза). Если метеoстанция нахoдится в гoрoде или в лесу, тo скoрoсть ветра занижена на 2-4 м/с пo сравнению с oткрытым местoм. Скoрoсть ветра над акватoриями крупных рек и oзёр, а также на вершинах хoлмoв на 2-5 м/с выше, чем в oбычных услoвиях.
Атмoсфернoе давление в разных тoчках местнoсти мoжет значительнo oтличаться oт давления на метеoстанции, в зависимoсти oт услoвий рельефа (при пoдъёме на 10 м давление пoнижается примернo на 1 мм рт.ст.).